Regional Weather Roundup
Issued by NWS

Home | Current Version | Previous Version | Text Only | Print | Product List | Glossary Off
Versions: 1 2 3 4 5 6 7 8 9 10 11 12 13 14 15 16 17 18 19 20 21 22 23 24 25 26 27 28 29 30 31 32 33 34 35 36 37 38 39 40 41 42 43 44 45 46 47 48 49 50

000
ASUS43 KIND 271309
RWRIN

WEATHER ROUNDUP FOR INDIANA
NATIONAL WEATHER SERVICE INDIANAPOLIS IN
900 AM EDT THU JUL 27 2017

NOTE: "FAIR" INDICATES FEW OR NO CLOUDS BELOW 12,000 FEET WITH NO
SIGNIFICANT WEATHER AND/OR OBSTRUCTIONS TO VISIBILITY.

* - STATION DOES NOT REPORT WEATHER SUCH AS PRECIPITATION OR FOG.

+ - STATION NOT QUALITY CONTROLLED BY THE NATIONAL WEATHER SERVICE.
    USE DATA WITH CAUTION...ESPECIALLY DEWPOINT AND RELATIVE
    HUMIDITY OBSERVATIONS.

INZ001>003-010>013-019-020-271400-
NORTHWEST INDIANA

CITY           SKY/WX    TMP DP  RH WIND       PRES   REMARKS
GARY /AIRPORT/ MOSUNNY   75  73  94 NW5       29.92F FOG
KNOX *+        CLOUDY    72  70  94 W5        29.93S
LA PORTE +     CLOUDY    72  70  95 CALM      29.94S
MICHIGAN CITY+ CLOUDY    73  73 100 CALM      29.93S
MONTICELLO +   CLOUDY    72  71  95 SW5       29.94S
RENSSELAER +   CLOUDY    72  68  88 SW5       29.95S
VALPARAISO     CLOUDY    74  73  97 CALM      29.93S FOG

$$

LMZ046-743>745-271400-
SOUTHERN LAKE MICHIGAN

STATION/POSITION TIME  TEMP    WIND        PRES    WAVE
                       AIR SEA DIR/SP/G            HT
                 (UTC) (F)     (DEG/KT/KT) (MB)    (FT)
BURNS HARBOR     1240   74        CALM     1013.9R
MICHIGAN CITY    1240   73     250/  2/  3   N/A
5NW MICH CITY    1300   74 75  310/  2/  2   N/A     0

$$

INZ004-005-014>016-021>024-271400-
NORTH CENTRAL INDIANA

CITY           SKY/WX    TMP DP  RH WIND       PRES   REMARKS
ELKHART        CLOUDY    73  68  83 CALM      29.93F
GOSHEN         PTSUNNY   75  68  78 W8        29.93S
LOGANSPORT +   CLOUDY    72  72 100 W6        29.95S
PERU/GRISSOM   DRIZZLE   73  73 100 W12       29.94S
ROCHESTER +    CLOUDY    73  73 100 W5        29.94S FOG
SOUTH BEND     CLOUDY    73  70  90 W3        29.93F
WARSAW +       CLOUDY    72  72 100 NW5       29.94R

$$

INZ006>009-017-018-025>027-271400-
NORTHEAST INDIANA

CITY           SKY/WX    TMP DP  RH WIND       PRES   REMARKS
AUBURN +       CLOUDY    72  68  88 CALM      29.93F
FORT WAYNE     CLOUDY    72  69  90 S3        29.93S FOG
HUNTINGTON +   CLOUDY    71  70  95 SW7       29.93R FOG
KENDALLVILLE + CLOUDY    72  70  91 CALM      29.94R

$$

INZ028-029-035-036-043>045-051>053-271400-
WEST CENTRAL INDIANA

CITY           SKY/WX    TMP DP  RH WIND       PRES   REMARKS
GREENCASTLE +  CLOUDY    72  70  94 CALM      29.97S
LAFAYETTE      CLOUDY    73  72  96 CALM      29.94S
TERRE HAUTE    LGT RAIN  74  71  91 SW9       29.95S FOG

$$

INZ030>032-037>040-046>048-054>057-064-065-271400-
CENTRAL INDIANA

CITY           SKY/WX    TMP DP  RH WIND       PRES   REMARKS
ANDERSON       CLOUDY    73  73 100 MISG      29.97
CP ATTERBURY + CLOUDY    73  72  94 W3        29.98R
COLUMBUS       CLOUDY    73  72  94 CALM      29.97S
FRANKFORT +    CLOUDY    74  73  94 SW3       29.97R
INDIANAPOLIS   LGT RAIN  74  73  97 SW9       29.96S
-EAGLE CREEK   CLOUDY    75  72  90 SW5       29.95S FOG
KOKOMO +       CLOUDY    72  71  97 SW5       29.96S
MARION +       LGT RAIN  72  72 100 SW5       29.96R
MT COMFORT *+  CLOUDY    73  72  94 CALM      29.97S
SHELBYVILLE    LGT RAIN  75  71  87 S3        29.96S
ZIONSVILLE +   DRIZZLE   71  71  99 SW6       29.97R

$$

INZ033-034-041-042-049-050-058-059-271400-
EAST CENTRAL INDIANA

CITY           SKY/WX    TMP DP  RH WIND       PRES   REMARKS
MUNCIE         CLOUDY    75  70  84 S6        29.95S
RICHMOND +     CLOUDY    72  70  94 SW7       29.99R FOG

$$

INZ060-061-067>069-081>083-085>088-271400-
SOUTHWEST INDIANA

CITY           SKY/WX    TMP DP  RH WIND       PRES   REMARKS
EVANSVILLE     LGT RAIN  75  73  93 CALM      29.97F
HUNTINGBURG *+ CLOUDY    75  74  96 SW3       29.97S

$$

INZ062-063-066-070>080-084-089>092-271400-
SOUTH CENTRAL AND SOUTHEAST INDIANA

CITY           SKY/WX    TMP DP  RH WIND       PRES   REMARKS
BEDFORD +      CLOUDY    73  72  94 CALM      29.97R
BLOOMINGTON    LGT RAIN  74  70  87 NW5       29.97S
MADISON *+     CLOUDY    75  72  88 CALM      30.00R
NORTH VERNON + LGT RAIN  73  72  94 CALM      29.98R
SEYMOUR +      PTSUNNY   77  73  88 CALM      29.97S FOG

$$




USA.gov is the U.S. government's official web portal to all federal, state and local government web resources and services.